Location: Gamarra
(10.0780°N, 67.4929°W)
Time: 09:48:21
(UTC+00:00)

GPS 2-17 Rocket1 - Pass Details

Date: 13 April 2024
Orbit: 560 x 639 km, 20.3° (Epoch: 23 May)

Event Time Altitude Azimuth Distance (km) Brightness Sun altitude
Rises 23:43:55 0° 298° (WNW) 2,778 8.0 -16.1°
Reaches altitude 10° 23:46:29 10° 310° (NW) 1,866 6.5 -16.7°
Maximum altitude 23:50:16 29° 10° (N) 1,054 4.2 -17.6°
Enters shadow 23:51:54 22° 48° (NE) 1,243 4.3 -18.0°
